RH
18 17 14 13 19 17 7 4 3 4 4 4 6 8 9 10 11 12 12 12 12 12 12 12 12 12 11 10 10 9 9 8 8 8 7 7 7 6 7 7 8 9 9
18 14 12 12 15 12 4 4 6 8 11 13 14 14 14 13 13 13 12 12 10 9 8 5 4 3 3 3 4 4 5 6 7 9 8 8 9 8 9 8 9 10 10
15 11 10 9 8 6 6 8 12 15 16 16 16 15 14 13 12 11 8 4 2 2 2 2 2 2 2 2 2 2 3 4 6 8 9 10 10 11 11 12 11 12 12
10 8 7 6 6 6 7 13 17 18 17 16 15 14 12 10 7 4 3 2 2 1 2 2 2 2 2 2 2 2 3 3 5 6 6 8 10 11 12 12 12 13 13
10 8 7 7 8 10 14 16 18 19 17 16 14 12 9 6 4 3 2 2 2 2 2 2 2 2 2 2 2 2 3 3 3 4 4 6 8 9 10 11 11 13 15
10 11 10 11 13 16 19 20 19 18 16 14 13 10 6 4 3 2 2 2 2 2 2 2 2 3 3 3 3 2 2 3 3 3 4 4 6 8 9 10 14 17 19
10 11 13 14 16 20 22 22 20 18 16 14 10 6 4 4 3 2 2 2 2 2 2 2 2 3 3 3 2 2 2 2 3 3 4 4 5 5 7 8 9 11 13
10 11 13 16 19 23 24 23 20 17 13 10 7 5 4 3 2 2 2 2 2 2 2 2 3 3 3 2 2 2 2 2 3 3 3 3 4 4 4 5 5 5 6
11 14 15 18 22 25 25 23 20 17 13 9 6 5 4 3 2 2 2 2 2 2 3 4 5 5 4 3 2 2 2 2 2 3 3 3 4 4 4 4 4 5 5
14 17 18 20 24 26 26 23 21 17 12 7 5 5 3 3 2 2 2 2 3 4 5 6 8 8 7 5 3 3 3 2 2 3 3 3 4 5 4 4 5 6 6
19 20 22 24 27 28 27 23 21 17 10 7 5 4 3 3 3 3 3 3 4 6 7 7 6 6 7 7 5 4 3 3 3 3 3 3 5 6 4 4 6 7 8
31 32 27 28 30 32 28 24 19 14 10 6 5 4 4 4 4 4 7 10 10 9 7 5 5 5 7 9 10 8 4 3 3 3 3 3 4 6 4 6 8 10 9
35 37 41 40 39 37 29 23 17 13 9 7 5 5 5 6 6 8 12 13 10 7 5 4 4 4 5 7 10 13 12 8 4 4 4 5 4 5 6 7 11 12 11
56 50 46 45 44 37 31 22 17 12 9 8 6 5 6 7 9 11 10 9 8 6 5 5 6 7 7 6 6 7 9 14 22 22 9 5 9 12 9 7 11 16 14
64 64 60 48 40 34 26 21 16 11 8 7 6 6 7 8 8 8 5 6 7 8 8 8 8 9 11 14 15 13 10 9 11 16 32 39 21 8 13 15 10 16 20
65 61 60 54 43 30 23 18 14 11 8 8 7 7 7 6 6 5 8 9 8 7 8 8 8 8 8 9 11 12 16 18 17 17 21 29 36 51 43 27 22 15 17
64 57 57 52 45 31 23 19 16 13 9 9 8 8 7 7 7 14 16 12 11 11 12 12 11 10 11 15 17 18 18 20 21 24 26 26 22 35 54 62 50 45 30
46 48 48 43 36 30 22 19 16 12 10 9 8 8 8 8 9 10 12 17 17 18 17 15 19 23 26 29 28 26 29 29 32 35 34 36 43 45 32 48 73 74 63
37 39 39 37 31 30 26 19 15 12 11 10 10 16 25 17 15 26 35 42 39 31 34 42 42 41 39 36 33 30 30 34 44 47 58 66 69 75 76 71 41 42 74
37 34 33 32 29 24 19 16 15 13 12 11 20 26 22 26 31 35 40 40 34 31 46 59 59 35 30 32 29 30 38 50 53 59 65 73 87 93 98 95 89 85 56
48 35 32 30 28 26 21 18 15 14 13 13 13 14 13 21 33 35 41 44 41 49 30 15 18 18 8 8 11 27 32 42 52 61 64 61 68 81 95 100 97 96 97
54 44 34 31 28 25 23 20 18 16 14 14 15 15 14 14 18 24 20 39 19 9 10 15 13 8 8 14 16 18 19 32 32 46 50 54 55 60 65 90 97 98 97
52 44 37 32 28 25 24 22 22 21 19 20 23 19 14 14 14 13 12 9 8 9 9 10 8 8 16 18 16 15 13 11 16 28 40 43 50 50 60 68 68 75 80
63 58 49 35 30 27 24 22 21 21 23 22 20 20 20 20 18 14 11 9 9 9 10 9 9 16 18 16 12 10 11 11 9 12 14 15 25 34 40 43 45 88 92
73 70 66 66 63 47 34 34 33 35 47 33 17 16 17 16 14 11 9 10 10 10 9 8 15 19 17 14 11 11 11 14 14 12 8 9 10 13 21 31 48 58 66
63 63 67 65 65 68 67 59 56 52 28 19 18 16 13 11 12 14 12 10 11 10 8 13 19 19 17 12 11 10 13 11 13 10 11 12 9 9 14 19 20 22 57
Wind_Speed
15 15 14 12 12 12 10 9 6 4 3 4 3 4 6 8 9 11 13 14 15 15 15 15 15 15 15 15 15 15 16 17 16 17 17 18 18 18 17 17 16 16 16
16 16 15 14 14 13 11 8 6 3 2 4 5 7 9 10 11 13 14 15 15 15 15 15 15 15 14 14 15 15 16 16 17 17 17 18 18 18 18 18 17 17 16
18 19 17 17 15 13 10 7 5 4 5 7 9 9 10 11 12 14 14 13 13 13 14 14 14 14 14 14 15 16 17 17 17 17 17 18 18 19 18 19 19 17 17
17 17 15 16 14 12 9 7 5 5 6 8 9 10 11 12 12 12 13 15 14 13 13 14 14 14 14 15 16 17 18 16 16 17 18 18 19 19 18 19 19 19 19
16 14 14 14 13 10 8 7 6 7 8 9 10 11 11 12 12 14 15 14 14 13 13 13 13 14 15 16 17 18 19 18 17 17 18 17 18 19 18 19 20 19 18
18 15 14 13 12 10 8 8 9 9 9 10 12 12 12 13 14 15 15 15 14 13 13 13 14 14 15 17 18 19 19 20 20 20 20 19 19 19 19 19 18 18 20
16 16 15 15 12 11 9 8 10 11 13 13 13 13 13 14 15 16 15 14 13 13 14 14 15 15 16 17 18 19 19 19 19 20 20 21 20 20 19 20 20 20 21
19 19 18 15 14 13 11 10 9 12 13 16 18 16 15 16 16 16 15 14 14 15 15 16 16 17 18 18 19 20 19 20 20 21 21 20 21 22 21 20 21 21 21
22 20 19 17 16 15 14 12 12 13 15 15 16 19 20 18 16 15 15 15 15 16 16 17 17 18 19 20 20 21 22 22 22 23 23 22 22 22 22 22 22 21 22
23 21 20 19 19 18 16 15 15 16 17 16 15 17 18 19 18 16 15 16 17 17 17 17 18 19 19 20 21 22 23 24 25 25 25 25 25 24 23 23 22 22 22
25 24 23 21 21 20 18 18 19 18 18 17 17 16 17 17 16 17 17 17 18 18 19 19 20 21 21 21 22 22 23 25 26 26 26 27 26 26 24 23 22 22 21
28 26 25 24 23 22 21 20 19 19 19 19 18 17 17 17 17 17 18 19 20 21 22 23 23 23 24 23 25 25 25 25 27 27 27 27 26 26 25 24 23 22 22
30 29 27 26 25 24 23 21 21 21 20 20 20 19 18 18 19 19 19 20 21 21 22 23 24 25 26 26 26 27 28 28 28 29 29 28 26 26 25 25 24 24 23
31 29 29 29 28 27 25 23 22 21 21 21 21 20 20 21 21 20 21 21 22 23 23 23 24 26 27 28 29 30 31 30 30 31 31 31 30 28 27 26 26 26 26
30 31 33 31 30 28 27 26 25 23 23 22 22 22 22 21 22 22 22 23 23 25 25 26 26 27 29 30 31 32 33 33 32 32 33 33 33 33 31 30 28 28 28
36 34 34 32 31 30 29 28 27 25 24 24 25 25 24 23 24 24 25 25 26 26 28 28 29 30 31 32 33 35 35 35 35 34 34 34 35 36 35 33 32 31 30
41 39 37 36 35 33 32 30 29 27 25 26 27 25 25 26 26 26 27 28 30 30 30 31 32 32 32 33 35 37 37 38 38 38 37 36 37 39 38 37 35 34 33
43 41 40 38 36 34 33 32 31 29 28 29 28 27 28 27 28 28 29 30 32 32 32 33 34 35 36 36 37 39 40 41 41 41 41 41 41 39 39 41 40 39 38
43 42 40 39 37 37 35 34 33 31 31 32 31 31 30 30 30 30 31 32 34 34 34 35 36 37 39 39 40 41 41 41 40 42 44 43 44 43 42 42 44 45 44
42 41 41 41 40 39 38 37 36 35 35 35 32 31 33 33 34 35 34 35 36 36 36 38 39 41 41 41 42 42 42 42 42 43 45 46 47 46 47 45 45 43 44
42 41 41 41 41 40 40 39 39 37 36 35 33 33 34 36 37 37 37 37 38 37 38 41 43 43 45 44 44 44 45 45 45 46 48 49 49 51 49 49 50 48 45
44 43 42 41 40 41 42 42 39 38 37 36 35 35 37 38 38 39 39 39 40 41 41 43 45 46 46 46 48 49 48 46 47 47 48 48 48 50 51 52 52 52 52
44 43 44 44 43 43 42 40 39 38 37 38 39 40 40 41 41 41 42 41 41 42 44 46 46 45 46 48 50 51 51 48 48 47 48 47 47 50 51 52 54 54 53
48 47 45 43 43 42 43 43 43 40 39 40 41 43 45 45 45 44 43 43 45 46 48 49 47 47 49 49 47 48 49 50 48 45 46 47 50 52 55 56 59 58 56
47 46 46 49 51 47 44 43 43 46 47 45 44 45 46 47 46 44 44 46 48 51 51 50 48 51 51 51 49 49 48 47 47 47 45 51 56 56 58 57 59 62 61
41 43 46 47 47 50 53 51 48 45 45 45 45 45 45 43 43 43 45 47 50 51 51 49 50 52 53 51 48 48 46 47 46 49 53 55 56 56 59 62 63 66 65
Wind_Direction
222 232 236 240 246 255 260 260 258 262 269 273 296 329 338 334 334 336 334 330 326 323 321 320 321 319 319 317 312 311 312 312 310 311 312 311 309 307 307 306 307 308 306
232 237 241 245 246 253 253 247 243 249 290 314 333 345 333 327 326 328 324 319 318 318 319 320 319 320 317 313 309 306 304 306 310 309 306 305 305 305 305 304 303 303 302
248 243 241 243 245 244 239 244 253 289 316 322 334 328 319 321 322 318 314 315 317 319 318 315 315 312 309 307 306 307 307 308 307 305 305 302 301 300 300 301 298 296 295
249 240 234 234 237 238 237 239 273 302 317 322 319 310 313 312 314 313 312 313 315 316 317 317 317 316 314 311 309 311 309 307 305 306 307 307 303 300 298 296 296 295 294
229 228 222 223 229 238 250 265 275 297 308 308 300 301 305 307 311 312 312 312 314 316 316 315 317 319 315 313 313 311 310 308 306 307 305 302 298 298 299 299 299 297 293
232 233 230 227 231 239 252 275 288 295 299 297 294 296 301 306 309 309 309 309 311 311 309 312 315 314 312 312 312 311 312 312 312 310 308 307 305 300 298 299 296 293 292
232 239 235 236 238 245 252 265 284 297 296 292 290 295 301 306 307 307 305 304 305 305 307 311 312 310 311 311 308 307 307 305 305 305 304 302 301 299 299 298 295 293 291
229 235 240 243 248 252 259 263 271 276 281 290 299 300 302 304 303 301 301 304 304 307 311 312 311 312 312 309 307 306 305 305 303 302 301 300 300 299 297 295 294 294 292
233 234 242 248 255 262 265 267 267 266 266 272 286 298 300 298 295 297 303 301 304 309 309 307 311 311 312 311 308 309 308 305 303 303 302 300 299 298 297 295 294 294 293
236 238 241 247 254 263 268 272 271 268 270 274 279 288 291 294 297 300 299 300 304 304 303 304 306 308 310 309 310 308 308 308 306 304 301 299 296 293 292 292 291 290 292
236 238 242 247 254 260 266 269 272 275 278 283 283 284 286 289 296 298 300 301 299 300 303 307 308 308 306 307 307 306 304 303 303 302 301 300 298 295 292 291 290 292 293
234 239 243 248 254 260 263 270 274 277 282 283 284 285 286 289 289 291 294 297 300 305 308 308 307 307 307 307 306 304 302 302 301 301 299 298 298 295 292 291 290 289 291
234 239 243 248 253 257 262 266 268 273 279 283 284 284 286 286 285 288 289 292 296 297 297 301 304 306 306 305 303 301 303 303 302 301 299 298 298 295 292 290 289 288 288
233 237 241 245 250 256 259 261 264 268 273 275 279 280 281 283 288 289 290 293 294 297 299 302 305 305 305 304 303 303 301 300 301 300 299 296 294 293 292 290 288 287 284
233 238 244 246 250 253 255 259 262 266 269 272 275 277 280 284 286 288 293 294 296 297 299 302 303 302 302 303 302 300 298 299 299 298 297 296 295 293 292 290 286 281 282
233 236 242 248 253 253 254 256 260 264 267 271 274 278 283 285 287 290 292 293 295 297 297 298 298 298 297 297 296 296 296 297 297 295 292 293 293 291 290 289 288 286 284
236 239 244 247 250 254 257 260 262 265 266 269 272 278 281 282 286 287 289 292 294 296 296 296 295 295 295 295 295 296 295 295 295 294 294 293 289 288 286 285 281 279 278
237 240 242 246 248 250 253 258 261 264 267 268 270 271 272 277 281 284 287 288 290 292 293 293 293 293 293 294 294 294 294 296 295 296 296 293 291 288 284 282 280 278 276
234 239 241 242 244 248 251 254 257 260 261 263 267 269 274 277 279 281 282 284 287 289 288 287 288 290 292 294 294 293 294 295 294 293 293 293 292 289 287 284 281 279 278
235 238 239 239 241 243 246 249 253 254 257 262 267 271 275 277 278 279 281 282 283 283 285 285 287 290 291 292 292 292 294 293 293 293 291 291 290 290 290 288 285 285 281
238 239 241 244 244 244 244 245 247 251 256 259 262 265 271 274 275 277 279 281 282 283 285 286 289 291 294 294 294 294 294 293 293 292 290 289 290 289 288 287 286 284 280
238 241 242 244 247 249 250 250 252 253 255 260 265 268 271 274 277 279 279 278 280 283 286 288 291 293 294 295 296 294 293 292 293 289 290 290 290 289 288 287 287 287 287
237 240 243 243 244 246 251 255 259 262 264 267 272 275 275 275 276 277 278 278 281 282 285 287 288 289 290 292 293 294 293 292 289 290 292 292 290 289 288 287 286 282 281
239 241 243 246 247 248 249 250 253 257 264 269 274 276 278 280 280 279 280 281 281 282 284 287 289 290 292 294 293 292 294 294 295 293 294 294 294 291 290 286 289 279 282
239 242 246 249 251 253 253 255 256 259 264 264 266 267 270 271 273 275 277 278 281 285 287 288 289 291 293 293 293 293 293 294 295 295 295 297 297 294 292 290 288 282 281
241 242 244 247 251 254 256 259 263 263 264 266 266 266 266 267 269 272 275 277 280 282 284 285 287 290 292 292 293 292 293 296 296 297 298 298 297 296 294 291 291 288 280